Track STARLINK-3620 now! 10-day predictions STARLINK-3620 is classified as:
1 51775U 22017H 22220.91667824 -.00013758 00000-0 -84776-3 0 9999 2 51775 53.2170 94.4253 0001688 62.6854 22.6112 15.08849536 1303